Weather History for Big Bear City, CA

Change the Weather History Date:

Tuesday, February 19, 2013

  Actual Average (KBUO) Record (KBUO)
Temperature  
Mean Temperature 29 °F -  
Max Temperature 39 °F 57 °F 73 °F (1997)
Min Temperature 19 °F 40 °F 37 °F (1998)
Degree Days  
Heating Degree Days 36    
Moisture  
Dew Point 15 °F    
Average Humidity 65    
Maximum Humidity 86    
Minimum Humidity 13    
Precipitation  
Precipitation 0.02 in - - ()
Sea Level Pressure  
Sea Level Pressure 29.74 in    
Wind  
Wind Speed 4 mph (WSW)    
Max Wind Speed 17 mph    
Max Gust Speed 24 mph    
Visibility 7 miles    
Events Snow    
Averages and records for this station are not official NWS values.
T = Trace of Precipitation, MM = Missing Value Source: NWS Daily Summary

Daily Weather History Graph

Daily Weather History Graph

Search for Another Location

Airport:

Trip Planner

Search our weather history database for the weather conditions in past years. The results will help you decide how hot, cold, wet, or windy it might be!

Date:

Astronomy

Feb. 19, 2013 Rise Set
Actual Time 6:27 AM PST 5:35 PM PST
Civil Twilight 6:02 AM PST 6:00 PM PST
Nautical Twilight 5:33 AM PST 6:29 PM PST
Astronomical Twilight 5:03 AM PST 6:59 PM PST
Moon 12:18 PM PST (2/19) 1:55 AM PST (2/19)
Length of Visible Light 11h 58m
Length of Day
11h 07m
Waxing Gibbous, 68% of the Moon is Illuminated
Feb 19
Waxing Gibbous
Feb 25
Full
Mar 4
Last Quarter
Mar 11
New
Mar 19
First Quarter

Hourly Weather History & Observations

Time (PST) Temp. Windchill Dew Point Humidity Pressure Visibility Wind Dir Wind Speed Gust Speed Precip Events Conditions
12:15 AM 23.0 °F - 14.0 °F 68% 29.92 in 10.0 mi Calm Calm - N/A   Clear
12:35 AM 23.0 °F - 14.0 °F 68% 29.91 in 10.0 mi Calm Calm - N/A   Clear
12:55 AM 21.2 °F - 12.2 °F 68% 29.91 in 10.0 mi Calm Calm - N/A   Clear
1:15 AM 21.2 °F - 12.2 °F 68% 29.90 in 10.0 mi Calm Calm - N/A   Clear
1:35 AM 21.2 °F - 12.2 °F 68% 29.89 in 10.0 mi Calm Calm - N/A   Clear
1:55 AM 21.2 °F - 12.2 °F 68% 29.88 in 10.0 mi Calm Calm - N/A   Clear
2:15 AM 21.2 °F - 10.4 °F 63% 29.87 in 10.0 mi Calm Calm - N/A   Clear
2:35 AM 21.2 °F - 8.6 °F 58% 29.87 in 10.0 mi Calm Calm - N/A   Clear
2:55 AM 21.2 °F - 8.6 °F 58% 29.86 in 10.0 mi Calm Calm - N/A   Clear
3:55 AM 19.4 °F 14.3 °F 10.4 °F 68% 29.84 in 10.0 mi West 3.5 mph - N/A   Clear
4:15 AM 21.2 °F - 10.4 °F 63% 29.84 in 10.0 mi Calm Calm - N/A   Clear
4:35 AM 21.2 °F - 10.4 °F 63% 29.83 in 10.0 mi Calm Calm - N/A   Clear
4:55 AM 19.4 °F - 10.4 °F 68% 29.83 in 10.0 mi Calm Calm - N/A   Clear
5:15 AM 19.4 °F - 8.6 °F 63% 29.83 in 10.0 mi Calm Calm - N/A   Clear
5:35 AM 19.4 °F - 8.6 °F 63% 29.84 in 10.0 mi Calm Calm - N/A   Clear
5:55 AM 19.4 °F - 8.6 °F 63% 29.84 in 10.0 mi Calm Calm - N/A   Clear
6:15 AM 19.4 °F - 6.8 °F 58% 29.83 in 10.0 mi Calm Calm - N/A   Clear
6:35 AM 19.4 °F - 6.8 °F 58% 29.82 in 3.0 mi Calm Calm - N/A   Haze
6:55 AM 19.4 °F - 8.6 °F 63% 29.83 in 10.0 mi Calm Calm - N/A   Clear
7:15 AM 23.0 °F - 8.6 °F 54% 29.83 in 10.0 mi Calm Calm - N/A   Clear
7:35 AM 26.6 °F - 8.6 °F 47% 29.83 in 10.0 mi Calm Calm - N/A   Clear
7:55 AM 28.4 °F - 12.2 °F 51% 29.82 in 10.0 mi Calm Calm - N/A   Clear
8:15 AM 30.2 °F - 8.6 °F 40% 29.81 in 10.0 mi Calm Calm - N/A   Clear
8:35 AM 33.8 °F 29.6 °F 1.4 °F 25% 29.80 in 10.0 mi WSW 4.6 mph - N/A   Clear
8:55 AM 37.4 °F 31.4 °F -7.6 °F 15% 29.80 in 10.0 mi West 8.1 mph - N/A   Scattered Clouds
9:15 AM 37.4 °F 32.1 °F -9.4 °F 13% 29.79 in 10.0 mi West 6.9 mph - N/A   Scattered Clouds
9:35 AM 39.2 °F 33.0 °F -7.6 °F 14% 29.78 in 10.0 mi West 9.2 mph - N/A   Clear
9:55 AM 37.4 °F 29.8 °F 8.6 °F 30% 29.78 in 10.0 mi West 11.5 mph 18.4 mph N/A   Clear
10:15 AM 35.6 °F 27.1 °F 15.8 °F 44% 29.79 in 10.0 mi West 12.7 mph - N/A   Clear
10:35 AM 33.8 °F 25.8 °F 19.4 °F 56% 29.79 in 10.0 mi WSW 10.4 mph 17.3 mph N/A   Clear
10:55 AM 35.6 °F 28.6 °F 17.6 °F 48% 29.78 in 10.0 mi WSW 9.2 mph - N/A   Clear
11:15 AM 35.6 °F 28.6 °F 19.4 °F 52% 29.78 in 10.0 mi West 9.2 mph - N/A   Clear
11:35 AM 33.8 °F 25.3 °F 19.4 °F 56% 29.77 in 10.0 mi WSW 11.5 mph 17.3 mph N/A   Clear
11:55 AM 33.8 °F 25.8 °F 21.2 °F 60% 29.76 in 10.0 mi WSW 10.4 mph 19.6 mph N/A   Clear
12:15 PM 33.8 °F 23.2 °F 19.4 °F 56% 29.76 in 10.0 mi West 17.3 mph 23.0 mph N/A   Scattered Clouds
12:35 PM 33.8 °F 25.3 °F 21.2 °F 60% 29.76 in 10.0 mi WSW 11.5 mph 21.9 mph N/A   Scattered Clouds
12:55 PM 32.0 °F 24.2 °F 19.4 °F 60% 29.74 in 10.0 mi SW 9.2 mph 16.1 mph N/A   Scattered Clouds
1:15 PM 32.0 °F 22.1 °F 21.2 °F 64% 29.74 in 10.0 mi West 13.8 mph 18.4 mph N/A   Clear
1:35 PM 32.0 °F 23.0 °F 21.2 °F 64% 29.73 in 10.0 mi SSW 11.5 mph 19.6 mph N/A   Scattered Clouds
1:55 PM 30.2 °F 21.3 °F 21.2 °F 69% 29.72 in 10.0 mi WSW 10.4 mph 16.1 mph N/A   Mostly Cloudy
2:15 PM 30.2 °F 21.9 °F 21.2 °F 69% 29.72 in 10.0 mi SW 9.2 mph 19.6 mph N/A   Overcast
2:35 PM 30.2 °F 20.2 °F 23.0 °F 75% 29.71 in 4.0 mi WSW 12.7 mph 20.7 mph N/A   Haze
2:55 PM 30.2 °F 21.9 °F 23.0 °F 75% 29.71 in 7.0 mi SW 9.2 mph 23.0 mph N/A   Overcast
3:15 PM 30.2 °F 22.6 °F 23.0 °F 75% 29.70 in 4.0 mi WSW 8.1 mph 19.6 mph N/A   Haze
4:35 PM 30.2 °F 21.3 °F 24.8 °F 80% 29.67 in 3.0 mi West 10.4 mph 17.3 mph N/A   Haze
4:55 PM 30.2 °F 25.4 °F 26.6 °F 86% 29.65 in 1.2 mi SSE 4.6 mph - N/A Snow Light Snow
5:15 PM 28.4 °F 20.4 °F 23.0 °F 80% 29.64 in 2.5 mi WSW 8.1 mph 17.3 mph N/A Snow Light Snow
5:35 PM 28.4 °F 19.1 °F 23.0 °F 80% 29.64 in 1.2 mi WSW 10.4 mph 18.4 mph N/A Snow Light Snow
5:55 PM 28.4 °F 21.2 °F 23.0 °F 80% 29.63 in 1.2 mi WSW 6.9 mph - N/A Snow Light Snow
6:15 PM 28.4 °F 19.1 °F 23.0 °F 80% 29.63 in 1.2 mi West 10.4 mph 17.3 mph N/A Snow Light Snow
6:35 PM 26.6 °F 17.5 °F 23.0 °F 86% 29.62 in 1.2 mi WSW 9.2 mph - N/A Snow Light Snow
6:55 PM 26.6 °F 16.8 °F 23.0 °F 86% 29.62 in 1.8 mi WSW 10.4 mph 16.1 mph N/A Snow Light Snow
7:15 PM 26.6 °F 16.8 °F 23.0 °F 86% 29.61 in 1.5 mi WSW 10.4 mph 17.3 mph N/A Snow Light Snow
7:35 PM 26.6 °F 17.5 °F 23.0 °F 86% 29.61 in 1.5 mi WSW 9.2 mph 16.1 mph N/A Snow Light Snow
7:55 PM 26.6 °F 19.1 °F 21.2 °F 80% 29.60 in 1.5 mi WSW 6.9 mph 16.1 mph N/A Snow Light Snow
8:15 PM 26.6 °F 15.7 °F 21.2 °F 80% 29.60 in 1.5 mi WSW 12.7 mph 20.7 mph N/A Snow Light Snow
8:35 PM 24.8 °F 14.6 °F 21.2 °F 86% 29.59 in 2.5 mi SW 10.4 mph 24.2 mph N/A Snow Light Snow
8:55 PM 24.8 °F 13.4 °F 19.4 °F 80% 29.58 in 1.2 mi WSW 12.7 mph 20.7 mph N/A Snow Light Snow
9:15 PM 24.8 °F 14.0 °F 19.4 °F 80% 29.58 in 1.5 mi WSW 11.5 mph 20.7 mph N/A Snow Light Snow
9:35 PM 24.8 °F 14.6 °F 21.2 °F 86% 29.56 in 0.8 mi WSW 10.4 mph 18.4 mph N/A Snow Snow
10:15 PM 23.0 °F 13.1 °F 19.4 °F 86% 29.56 in 0.5 mi WSW 9.2 mph 17.3 mph N/A Snow Heavy Snow
10:35 PM 23.0 °F 12.4 °F 19.4 °F 86% 29.54 in 3.0 mi WSW 10.4 mph 19.6 mph N/A Snow Light Snow
10:55 PM 23.0 °F 11.7 °F 19.4 °F 86% 29.55 in 7.0 mi West 11.5 mph 18.4 mph N/A Snow Light Snow
11:15 PM 23.0 °F 14.7 °F 17.6 °F 80% 29.54 in 0.5 mi WSW 6.9 mph - 0.01 in Snow Snow
11:35 PM 23.0 °F 17.0 °F 19.4 °F 86% 29.52 in 0.8 mi West 4.6 mph - 0.01 in Snow Snow
11:55 PM 23.0 °F 15.8 °F 19.4 °F 86% 29.52 in 0.8 mi West 5.8 mph - 0.02 in Snow Snow